NILESAT 301

Last updated on Mon Sep 07 2026 00:03:01 GMT+0000 (Coordinated Universal Time)

1 52817U 22061A 26249.59043500 -.00000074 00000+0 00000+0 0 9993 2 52817 0.0606 340.3972 0001323 160.3070 50.5810 1.00269191 15555
UTC large
Height (km)
Speed (km/s)
/
Latitude / Longitude
Inclination (degrees)
Orbital Period (minutes)
Azimuth
Elevation
Range (km)
Doppler Factor

Next 0 passes for location: London (51.5072 / 0.1276)

No passes found over London.
NILESAT 301